• In Belarus
  • List of Countries
  • For 7 days
  • Water Temperature
  • Satellite Maps
  • Weather Map
  • Weather Widgets
  • user-avatar
    Login

    Hourly Weather Nadvornaya

    Today, 23 October, Monday

    Time Temperature Precipitation Wind Pressure Humidity
    00:00 +7°C° 0 mm 3 mps 720 mmHg 91%
    01:00 +7°C° 0 mm 2 mps 720 mmHg 90%
    02:00 +6°C° 0 mm 2 mps 720 mmHg 89%
    03:00 +7°C° 0.1 mm 2 mps 719 mmHg 90%
    04:00 +7°C° 0.1 mm 2 mps 719 mmHg 90%
    05:00 +7°C° 0.1 mm 2 mps 719 mmHg 90%
    06:00 +7°C° 0.1 mm 2 mps 718 mmHg 90%
    07:00 +7°C° 0.1 mm 2 mps 718 mmHg 89%
    08:00 +7°C° 0.1 mm 3 mps 718 mmHg 89%
    09:00 +7°C° 0.4 mm 3 mps 718 mmHg 88%
    10:00 +8°C° 0.4 mm 3 mps 717 mmHg 87%
    11:00 +8°C° 0.4 mm 3 mps 717 mmHg 86%
    12:00 +8°C° 0.8 mm 3 mps 717 mmHg 87%
    13:00 +8°C° 0.8 mm 3 mps 717 mmHg 89%
    14:00 +9°C° 0.8 mm 2 mps 717 mmHg 90%
    15:00 +8°C° 0.5 mm 2 mps 717 mmHg 91%
    16:00 +8°C° 0.5 mm 2 mps 717 mmHg 92%
    17:00 +8°C° 0.5 mm 2 mps 718 mmHg 93%
    18:00 +8°C° 0.3 mm 2 mps 718 mmHg 94%
    19:00 +8°C° 0.3 mm 2 mps 718 mmHg 94%
    20:00 +8°C° 0.3 mm 2 mps 718 mmHg 94%
    21:00 +8°C° 0.2 mm 3 mps 719 mmHg 94%
    22:00 +8°C° 0.2 mm 3 mps 719 mmHg 94%
    23:00 +7°C° 0.2 mm 3 mps 719 mmHg 94%

    Tomorrow, 24 October, Tuesday

    Time Temperature Precipitation Wind Pressure Humidity
    00:00 +7°C° 0.2 mm 3 mps 720 mmHg 94%
    01:00 +7°C° 0.2 mm 3 mps 720 mmHg 94%
    02:00 +7°C° 0.2 mm 3 mps 721 mmHg 94%
    03:00 +7°C° 0.2 mm 3 mps 721 mmHg 94%
    04:00 +5°C° 0.2 mm 3 mps 721 mmHg 94%
    05:00 +5°C° 0.2 mm 3 mps 722 mmHg 93%
    06:00 +5°C° 0.2 mm 3 mps 722 mmHg 93%
    07:00 +5°C° 0.2 mm 3 mps 723 mmHg 93%
    08:00 +5°C° 0.2 mm 3 mps 723 mmHg 92%
    09:00 +5°C° 0.3 mm 3 mps 724 mmHg 91%
    10:00 +5°C° 0.3 mm 3 mps 725 mmHg 90%
    11:00 +5°C° 0.3 mm 3 mps 725 mmHg 89%
    12:00 +5°C° 0.1 mm 3 mps 725 mmHg 87%
    13:00 +5°C° 0.1 mm 3 mps 726 mmHg 85%
    14:00 +6°C° 0.1 mm 2 mps 726 mmHg 84%
    15:00 +6°C° 0 mm 2 mps 726 mmHg 84%
    16:00 +6°C° 0 mm 2 mps 727 mmHg 85%
    17:00 +5°C° 0 mm 2 mps 727 mmHg 86%
    18:00 +5°C° 0 mm 2 mps 727 mmHg 87%
    19:00 +5°C° 0 mm 2 mps 728 mmHg 88%
    20:00 +4°C° 0 mm 2 mps 728 mmHg 89%
    21:00 +4°C° 0 mm 2 mps 729 mmHg 89%
    22:00 +4°C° 0 mm 2 mps 729 mmHg 89%
    23:00 +3°C° 0 mm 2 mps 729 mmHg 89%

    Day after tomorrow, 25 October, Wednesday

    Time Temperature Precipitation Wind Pressure Humidity
    00:00 +4°C° 0 mm 1 mps 730 mmHg 90%
    01:00 +3°C° 0 mm 1 mps 730 mmHg 90%
    02:00 +3°C° 0 mm 1 mps 730 mmHg 90%
    03:00 +2°C° 0 mm 1 mps 730 mmHg 91%
    04:00 +2°C° 0 mm 1 mps 730 mmHg 91%
    05:00 +2°C° 0 mm 1 mps 730 mmHg 91%
    06:00 +2°C° 0 mm 1 mps 730 mmHg 89%
    07:00 +2°C° 0 mm 1 mps 731 mmHg 88%
    08:00 +3°C° 0 mm 1 mps 731 mmHg 86%
    09:00 +3°C° 0 mm 2 mps 731 mmHg 78%
    10:00 +5°C° 0 mm 2 mps 731 mmHg 70%
    11:00 +7°C° 0 mm 2 mps 731 mmHg 62%
    12:00 +8°C° 0 mm 2 mps 731 mmHg 59%
    13:00 +9°C° 0 mm 2 mps 731 mmHg 55%
    14:00 +10°C° 0 mm 2 mps 731 mmHg 52%
    15:00 +9°C° 0 mm 2 mps 730 mmHg 57%
    16:00 +8°C° 0 mm 2 mps 730 mmHg 63%
    17:00 +7°C° 0 mm 2 mps 730 mmHg 68%
    18:00 +6°C° 0 mm 2 mps 730 mmHg 69%
    19:00 +6°C° 0 mm 2 mps 730 mmHg 71%
    20:00 +6°C° 0 mm 2 mps 730 mmHg 72%
    21:00 +6°C° 0 mm 2 mps 730 mmHg 73%
    22:00 +6°C° 0 mm 2 mps 730 mmHg 74%
    23:00 +6°C° 0 mm 2 mps 730 mmHg 76%

    26 October, Thursday

    Time Temperature Precipitation Wind Pressure Humidity
    00:00 +6°C° 0 mm 2 mps 730 mmHg 76%
    01:00 +6°C° 0 mm 2 mps 730 mmHg 77%
    02:00 +6°C° 0 mm 2 mps 730 mmHg 77%
    03:00 +6°C° 0 mm 2 mps 730 mmHg 76%
    04:00 +7°C° 0 mm 2 mps 730 mmHg 74%
    05:00 +7°C° 0 mm 2 mps 730 mmHg 72%
    06:00 +7°C° 0 mm 2 mps 730 mmHg 72%
    07:00 +8°C° 0 mm 2 mps 730 mmHg 73%
    08:00 +8°C° 0 mm 2 mps 730 mmHg 73%
    09:00 +9°C° 0.1 mm 2 mps 730 mmHg 70%
    10:00 +10°C° 0.1 mm 2 mps 730 mmHg 68%
    11:00 +12°C° 0.1 mm 2 mps 730 mmHg 65%
    12:00 +12°C° 0 mm 3 mps 730 mmHg 64%
    13:00 +12°C° 0 mm 3 mps 729 mmHg 64%
    14:00 +13°C° 0 mm 3 mps 729 mmHg 63%
    15:00 +12°C° 0 mm 3 mps 729 mmHg 66%
    16:00 +12°C° 0 mm 2 mps 729 mmHg 69%
    17:00 +12°C° 0 mm 2 mps 728 mmHg 73%
    18:00 +10°C° 0 mm 3 mps 728 mmHg 75%
    19:00 +10°C° 0 mm 3 mps 728 mmHg 76%
    20:00 +10°C° 0 mm 3 mps 727 mmHg 78%
    21:00 +10°C° 0 mm 3 mps 727 mmHg 79%
    22:00 +10°C° 0 mm 3 mps 727 mmHg 79%
    23:00 +10°C° 0 mm 4 mps 726 mmHg 79%

    27 October, Friday

    Time Temperature Precipitation Wind Pressure Humidity
    00:00 +10°C° 0 mm 4 mps 726 mmHg 78%
    01:00 +9°C° 0 mm 5 mps 725 mmHg 77%
    02:00 +10°C° 0 mm 5 mps 725 mmHg 76%
    03:00 +10°C° 0 mm 5 mps 724 mmHg 77%
    04:00 +9°C° 0 mm 5 mps 724 mmHg 77%
    05:00 +9°C° 0 mm 5 mps 723 mmHg 78%
    06:00 +9°C° 0 mm 5 mps 723 mmHg 77%
    07:00 +10°C° 0 mm 4 mps 723 mmHg 77%
    08:00 +10°C° 0 mm 4 mps 722 mmHg 77%
    09:00 +11°C° 0 mm 4 mps 722 mmHg 73%
    10:00 +12°C° 0 mm 4 mps 721 mmHg 70%
    11:00 +13°C° 0 mm 4 mps 721 mmHg 67%
    12:00 +13°C° 0.1 mm 5 mps 720 mmHg 67%
    13:00 +13°C° 0.1 mm 5 mps 720 mmHg 67%
    14:00 +13°C° 0.1 mm 5 mps 719 mmHg 67%
    15:00 +12°C° 0.7 mm 4 mps 719 mmHg 73%
    16:00 +11°C° 0.7 mm 4 mps 718 mmHg 79%
    17:00 +10°C° 0.7 mm 3 mps 718 mmHg 85%
    18:00 +10°C° 1.2 mm 3 mps 718 mmHg 87%
    19:00 +9°C° 1.2 mm 3 mps 718 mmHg 89%
    20:00 +9°C° 1.2 mm 3 mps 717 mmHg 91%
    21:00 +8°C° 1.2 mm 3 mps 717 mmHg 90%
    22:00 +7°C° 1.2 mm 4 mps 718 mmHg 89%
    23:00 +6°C° 1.2 mm 4 mps 718 mmHg 89%

    28 October, Saturday

    Time Temperature Precipitation Wind Pressure Humidity
    00:00 +7°C° 0.3 mm 3 mps 718 mmHg 89%
    01:00 +7°C° 0.3 mm 3 mps 718 mmHg 90%
    02:00 +7°C° 0.3 mm 3 mps 718 mmHg 91%
    03:00 +7°C° 0.1 mm 3 mps 718 mmHg 91%
    04:00 +5°C° 0.1 mm 3 mps 718 mmHg 91%
    05:00 +5°C° 0.1 mm 3 mps 718 mmHg 91%
    06:00 +5°C° 0.1 mm 3 mps 718 mmHg 90%
    07:00 +7°C° 0.1 mm 3 mps 718 mmHg 89%
    08:00 +7°C° 0.1 mm 3 mps 718 mmHg 88%
    09:00 +7°C° 0.3 mm 3 mps 718 mmHg 84%
    10:00 +7°C° 0.3 mm 4 mps 718 mmHg 80%
    11:00 +8°C° 0.3 mm 4 mps 718 mmHg 77%
    12:00 +8°C° 0.5 mm 4 mps 717 mmHg 77%
    13:00 +7°C° 0.5 mm 4 mps 717 mmHg 77%
    14:00 +7°C° 0.5 mm 4 mps 716 mmHg 78%
    15:00 +8°C° 0.2 mm 3 mps 716 mmHg 79%
    16:00 +7°C° 0.2 mm 3 mps 715 mmHg 81%
    17:00 +7°C° 0.2 mm 2 mps 715 mmHg 82%
    18:00 +7°C° 0.1 mm 2 mps 714 mmHg 83%
    19:00 +5°C° 0.1 mm 3 mps 713 mmHg 84%
    20:00 +5°C° 0.1 mm 3 mps 713 mmHg 84%
    21:00 +5°C° 0.4 mm 4 mps 712 mmHg 84%
    22:00 +5°C° 0.4 mm 4 mps 711 mmHg 83%
    23:00 +5°C° 0.4 mm 5 mps 710 mmHg 82%

    29 October, Sunday

    Time Temperature Precipitation Wind Pressure Humidity
    00:00 +5°C° 0.6 mm 5 mps 710 mmHg 82%
    01:00 +5°C° 0.6 mm 5 mps 709 mmHg 82%
    02:00 +5°C° 0.6 mm 5 mps 709 mmHg 82%
    03:00 +5°C° 0.2 mm 4 mps 709 mmHg 84%
    04:00 +5°C° 0.2 mm 4 mps 708 mmHg 85%
    05:00 +4°C° 0.2 mm 4 mps 708 mmHg 87%
    06:00 +4°C° 0.1 mm 4 mps 709 mmHg 86%
    07:00 +4°C° 0.1 mm 4 mps 709 mmHg 85%
    08:00 +3°C° 0.1 mm 5 mps 709 mmHg 84%
    09:00 +3°C° 0.3 mm 5 mps 710 mmHg 82%
    10:00 +4°C° 0.3 mm 6 mps 710 mmHg 80%
    11:00 +4°C° 0.3 mm 7 mps 710 mmHg 78%
    12:00 +4°C° 0.8 mm 7 mps 711 mmHg 79%
    13:00 +4°C° 0.8 mm 7 mps 711 mmHg 80%
    14:00 +4°C° 0.8 mm 7 mps 711 mmHg 81%
    15:00 +3°C° 0.8 mm 7 mps 712 mmHg 82%
    16:00 +3°C° 0.8 mm 7 mps 712 mmHg 83%
    17:00 +3°C° 0.8 mm 7 mps 713 mmHg 84%
    18:00 +2°C° 0.5 mm 7 mps 714 mmHg 85%
    19:00 +2°C° 0.5 mm 7 mps 715 mmHg 85%
    20:00 +2°C° 0.5 mm 6 mps 716 mmHg 86%
    21:00 +2°C° 0.3 mm 6 mps 716 mmHg 85%
    22:00 +1°C° 0.3 mm 6 mps 717 mmHg 85%
    23:00 +1°C° 0.3 mm 6 mps 717 mmHg 85%
    Show more